Вернуться в каталог

SDA_1683

АктивенВоенныеPO
NORAD 65993·PAYLOAD·🇺🇸 United States

Запущен Oct 15, 2025 с Vandenberg Space Force Base

Loading…

Ближайшие Пролёты (ближайшие 24 часа)

TLE

СвежийSource: Space-Track

Эпоха: Sep 14, 2026, 08:42 UTC

1 65993U 25230V   26257.36276645  .00000081  00000-0  69014-4 0  9998
2 65993  81.3009 130.6277 0001275  58.4379 301.6899 13.78094818 46052

Отслеживайте SDA_1683 в реальном времени с AllMySat

Download on the App Store